This is the latest recevied weather packets stored in our database for station/object W2GRK-15. If no packets are shown the sender has not sent any weather packets the latest 10 day(s).
| Time | Temp. | Humidity | Pressure | Rain* | Wind** | Luminosity | Snow |
|---|---|---|---|---|---|---|---|
| 1777947140 | 16.67° C | 54% | 1011.5 hPa | 0 mm | - | 0 W/m² | - |
| 1777946963 | 16.67° C | 54% | 1011.7 hPa | 0 mm | - | 0 W/m² | - |
| 1777946850 | 16.67° C | 54% | 1011.7 hPa | 0 mm | - | 0 W/m² | - |
| 1777945357 | 16.11° C | 54% | 1011.4 hPa | 0 mm | - | 0 W/m² | - |
| 1777945224 | 15.56° C | 56% | 1011.5 hPa | 0 mm | - | 0 W/m² | - |
| 1777945095 | 15.56° C | 55% | 1011.3 hPa | 0 mm | - | 0 W/m² | - |
| 1777944870 | 15.56° C | 54% | 1011.3 hPa | 0 mm | - | 0 W/m² | - |
| 1777944805 | 15.56° C | 55% | 1011.2 hPa | 0 mm | - | 0 W/m² | - |
| 1777944677 | 15.56° C | 55% | 1011.4 hPa | 0 mm | - | 0 W/m² | - |
| 1777944435 | 15.56° C | 55% | 1011.2 hPa | 0 mm | - | 0 W/m² | - |
| 1777944101 | 15.56° C | 54% | 1011.2 hPa | 0 mm | - | 0 W/m² | - |
| 1777943969 | 15.56° C | 54% | 1011.1 hPa | 0 mm | - | 0 W/m² | - |
| 1777943839 | 15.56° C | 54% | 1011 hPa | 0 mm | - | 0 W/m² | - |
| 1777943747 | 16.11° C | 54% | 1011 hPa | 0 mm | - | 0 W/m² | - |
| 1777943598 | 16.11° C | 54% | 1011 hPa | 0 mm | - | 0 W/m² | - |
| 1777943356 | 16.11° C | 53% | 1010.9 hPa | 0 mm | - | 0 W/m² | - |
| 1777942938 | 16.67° C | 51% | 1010.9 hPa | 0 mm | - | 0 W/m² | - |
| 1777942825 | 16.67° C | 52% | 1010.9 hPa | 0 mm | - | 0 W/m² | - |
| 1777942696 | 16.67° C | 52% | 1010.9 hPa | 0 mm | - | 0 W/m² | - |
| 1777942406 | 16.67° C | 50% | 1010.8 hPa | 0 mm | - | 0 W/m² | - |
| 1777942342 | 17.22° C | 50% | 1010.7 hPa | 0 mm | - | 0 W/m² | - |
| 1777942165 | 17.22° C | 49% | 1010.7 hPa | 0 mm | - | 0 W/m² | - |
| 1777942120 | 17.22° C | 49% | 1010.6 hPa | 0 mm | - | 0 W/m² | - |
| 1777941943 | 17.22° C | 49% | 1010.6 hPa | 0 mm | - | 0 W/m² | - |
| 1777941879 | 17.22° C | 49% | 1010.7 hPa | 0 mm | - | 0 W/m² | - |
* Rain latest hour (hover to see other rain measurements)
** Current wind speed in m/s (hover to see current wind gust speed)